Theta_e
301 301 304 304 300 292 294 296 292 294 299 298 294 298 299 301 296 293 302 303 308 313 314 318 322 324 324 325 326 327 327 329 329 328 330 332 330 332 334 334 336 339 340 341 341 341 342 342 342 344 345 347 347 348 347 346 349 348 349 350 350 350 350
303 304 303 303 305 301 295 293 293 298 301 300 293 287 290 289 284 288 302 299 301 302 300 316 318 320 322 325 325 327 327 328 328 329 330 331 331 332 334 335 337 339 340 341 342 342 342 342 342 345 346 347 348 349 349 347 350 347 348 350 350 349 350
305 305 307 305 307 308 302 298 301 297 289 289 292 293 285 285 286 286 298 303 302 302 303 312 314 318 320 322 324 325 327 327 327 329 330 332 333 332 333 335 336 338 339 340 341 342 342 343 343 345 347 348 348 350 350 349 350 349 349 350 351 350 351
303 302 303 294 299 306 309 310 306 305 295 295 294 293 291 291 284 289 290 299 296 307 309 318 317 319 321 323 323 324 326 327 328 330 331 332 332 332 332 335 338 338 339 340 341 341 341 342 343 344 347 348 348 350 351 350 351 351 350 350 351 349 350
302 295 298 298 300 298 300 302 301 303 301 303 299 300 295 292 287 286 288 291 298 307 319 320 320 322 324 324 324 325 326 327 328 330 332 333 333 332 333 333 334 336 338 340 341 342 343 343 344 345 346 347 348 349 351 350 350 351 350 350 351 350 350
294 296 303 306 305 303 301 300 300 301 300 296 291 290 303 302 295 289 290 287 297 309 326 322 321 323 325 326 325 326 327 328 330 332 333 332 333 334 333 333 337 337 337 339 341 342 342 341 342 344 346 347 348 348 351 350 350 351 350 350 350 350 350
298 301 305 310 309 308 307 305 303 306 305 300 293 286 293 300 300 304 299 295 299 315 323 323 324 325 327 327 329 328 329 328 330 332 335 337 333 334 335 335 336 336 337 338 339 340 340 340 342 344 345 346 347 348 350 350 350 350 351 351 351 350 350
301 303 306 309 310 308 305 305 306 306 303 305 298 297 300 297 300 298 296 296 300 311 322 325 326 327 327 326 328 328 328 329 331 332 332 333 335 333 335 336 336 337 337 337 337 338 340 340 341 343 344 346 347 348 350 350 349 350 351 351 351 350 349
290 294 299 300 305 306 303 302 304 308 309 307 306 304 303 295 301 303 294 292 300 312 324 323 325 326 326 327 329 330 328 328 330 331 333 335 337 333 334 335 338 338 338 336 336 337 339 340 341 343 344 345 346 347 349 350 350 351 351 351 350 350 349
284 284 285 288 294 297 302 308 308 309 309 307 303 296 298 289 298 302 296 297 303 312 317 320 324 324 323 325 327 329 330 330 330 331 331 334 335 333 333 335 336 337 339 338 336 337 338 340 342 343 344 345 346 347 348 350 350 350 350 350 350 349 349
287 290 293 298 307 302 298 303 306 306 310 310 308 301 295 290 295 299 301 302 302 306 311 314 320 323 322 322 324 325 327 329 330 331 332 332 333 334 335 336 336 338 339 340 338 337 338 339 342 343 343 344 346 346 346 347 347 346 344 343 345 348 349
297 299 301 306 308 303 305 305 304 308 308 308 306 299 297 301 294 290 302 306 304 305 310 315 321 322 322 323 324 326 327 329 330 331 332 334 332 333 334 334 336 338 339 340 339 338 340 341 342 343 344 345 346 345 344 345 346 345 345 344 344 345 348
303 305 305 308 308 307 306 306 306 306 309 308 305 305 306 304 295 292 301 307 306 308 314 319 320 321 322 323 325 328 329 330 331 330 331 331 331 333 333 334 334 335 337 337 338 340 341 341 341 342 343 344 345 345 345 345 345 345 345 344 344 345 347
305 304 305 308 305 307 307 307 306 306 308 307 308 308 309 308 304 306 305 307 309 314 317 319 321 324 325 326 327 327 327 328 329 329 329 330 330 330 332 333 335 337 339 338 339 339 339 340 341 342 344 344 344 344 344 345 345 345 345 344 343 344 346
299 303 307 307 306 305 302 304 306 308 307 307 308 310 312 313 311 312 311 310 308 316 320 321 323 323 324 323 322 323 325 326 328 329 328 329 329 331 333 334 335 335 337 340 341 339 338 338 338 343 345 345 345 344 344 345 345 346 346 345 345 346 346
295 302 303 303 304 304 303 302 305 305 305 303 307 305 311 309 308 309 308 304 304 312 319 321 321 321 321 321 321 322 323 326 327 327 328 329 330 331 331 332 332 334 336 336 338 339 340 341 340 340 339 344 345 344 345 345 346 348 347 346 346 347 348
292 299 303 302 303 299 296 298 302 305 307 309 311 312 314 315 314 306 302 302 310 315 320 316 318 320 322 322 322 322 323 326 328 327 327 329 330 330 331 331 332 333 335 337 338 340 342 342 342 342 341 339 340 342 345 346 347 347 347 348 348 348 347
291 298 302 302 294 288 290 302 308 311 307 310 307 307 310 315 315 309 310 312 316 318 318 317 315 318 319 323 326 327 323 323 325 327 328 329 330 330 332 333 332 333 335 337 339 340 341 343 344 345 345 343 342 342 343 343 345 346 346 346 347 347 347
291 297 298 292 288 288 300 308 310 312 311 313 313 314 316 316 317 316 314 315 315 317 318 319 319 320 324 326 326 326 326 327 327 327 328 328 329 330 333 333 334 335 335 335 337 340 342 343 343 343 342 343 343 343 344 342 342 340 343 344 345 346 346
294 293 292 286 286 297 307 309 313 316 314 314 314 311 315 316 316 316 313 314 316 317 318 320 321 322 324 326 326 328 329 330 329 329 329 330 331 331 333 333 332 335 336 335 335 337 344 344 342 342 341 343 342 342 344 344 342 341 341 343 343 345 346
290 290 289 290 299 301 304 306 309 310 305 309 307 301 308 317 318 317 315 314 315 317 318 319 320 321 322 318 321 332 331 330 332 332 332 334 334 334 335 336 334 336 338 338 339 340 341 342 341 339 341 343 341 341 341 343 343 343 340 340 341 343 346
293 287 287 291 287 287 295 304 312 313 313 314 313 311 306 315 319 320 317 315 315 316 318 319 320 320 313 310 314 326 333 333 332 333 333 335 336 336 336 336 336 337 337 339 341 339 341 340 339 340 342 341 340 339 339 339 340 339 339 337 338 341 342
292 290 286 285 286 290 297 305 313 315 315 318 316 306 300 310 317 320 318 316 317 317 317 317 317 311 308 309 313 323 331 332 333 331 332 333 334 335 335 334 334 336 337 340 341 342 341 339 340 341 340 339 337 336 337 336 337 335 336 338 340 340 341
293 290 288 287 295 295 307 312 314 315 316 315 305 293 293 309 318 320 319 318 317 317 317 316 315 309 307 309 316 328 331 332 334 333 332 332 333 333 335 336 335 336 337 337 337 338 339 339 341 340 339 338 338 337 335 335 334 334 337 338 341 342 342
294 296 290 296 299 309 313 312 315 318 318 305 294 288 297 315 319 320 319 318 318 317 317 316 311 312 313 318 325 331 331 331 332 333 333 332 333 333 334 335 338 335 335 335 335 335 337 342 341 340 339 337 336 337 336 335 336 336 337 339 342 342 343
292 290 289 292 297 306 311 313 317 319 308 294 292 303 315 318 320 321 320 319 318 320 319 316 314 318 325 330 330 329 329 329 330 331 331 331 332 333 336 337 335 333 334 335 335 336 338 340 343 341 339 337 336 335 335 335 337 339 341 342 342 343 344
294 294 291 287 287 303 314 316 314 315 301 299 306 314 320 324 322 321 319 320 321 322 319 320 321 323 326 328 328 329 329 329 328 328 329 329 329 330 331 332 335 334 333 333 334 335 337 338 340 341 341 339 339 339 337 339 341 342 341 340 342 342 342
290 291 290 289 296 301 317 314 305 312 313 314 316 318 318 321 322 321 319 319 322 323 322 321 321 323 325 326 327 326 326 327 327 327 328 328 330 331 332 333 333 334 333 333 334 335 336 337 338 339 339 338 339 338 338 341 343 344 342 341 341 340 340
296 294 295 303 307 315 320 317 315 317 321 322 321 320 321 321 321 321 322 322 323 324 323 322 323 323 324 324 325 324 324 324 325 326 327 329 329 330 331 332 333 332 332 332 333 334 335 336 336 336 337 336 336 335 338 341 339 338 337 337 336 335 334
310 310 309 313 313 315 316 318 319 320 320 321 322 322 319 320 321 323 322 323 324 324 324 323 323 324 323 323 323 324 325 326 326 328 327 326 327 328 329 329 331 332 332 332 332 332 333 335 335 336 336 336 334 335 338 339 338 336 335 334 333 332 331
296 296 309 311 312 314 316 318 320 322 323 320 321 321 320 321 323 323 324 325 324 325 324 323 324 324 324 323 323 323 323 325 326 326 326 327 327 327 328 329 331 331 331 330 330 331 330 333 334 335 334 335 335 336 336 336 335 335 334 332 332 330 329
296 297 309 313 315 315 317 317 316 317 319 321 320 320 322 323 324 325 325 325 325 325 324 324 324 323 324 323 322 321 323 324 326 326 325 326 328 330 331 331 331 330 330 329 329 330 330 331 332 333 333 333 334 334 335 336 334 333 332 331 329 328 328
310 312 314 314 315 315 316 318 317 317 318 317 320 321 323 325 324 324 324 324 325 325 324 325 324 323 322 323 323 323 323 325 326 326 327 327 328 329 330 331 331 329 329 329 329 329 329 330 330 330 331 332 333 332 332 333 332 331 331 331 329 328 328
303 305 310 311 306 304 311 316 319 319 319 320 320 320 322 323 322 322 323 323 325 325 325 325 325 323 322 323 323 324 325 325 326 326 326 327 328 327 327 327 327 328 328 328 329 329 328 328 328 329 329 330 331 332 332 331 331 330 329 328 327 327 327
302 308 314 314 308 308 312 316 319 320 321 321 320 319 320 320 321 322 322 321 321 322 324 326 325 324 324 323 324 323 325 325 325 324 323 323 324 324 324 322 321 322 324 327 327 326 325 326 326 327 327 328 329 331 331 331 330 328 327 327 327 327 328
310 314 316 315 313 312 314 318 319 318 321 321 321 321 321 321 322 322 321 321 320 319 320 323 325 324 323 323 325 324 324 325 322 321 321 322 322 323 324 322 321 320 321 323 324 324 323 323 323 324 326 326 328 329 329 329 329 328 327 326 325 325 326
311 316 316 316 314 315 317 319 318 319 322 323 322 322 321 322 323 323 322 321 319 318 317 317 318 320 320 321 322 322 321 320 321 322 323 324 323 322 322 321 319 319 318 319 320 321 322 323 323 325 324 325 327 329 329 330 329 328 328 327 326 326 328
Wind_Speed
0 1 1 1 3 1 3 3 1 3 4 4 1 1 1 4 3 4 3 2 2 3 3 4 4 7 6 5 2 7 8 8 9 10 9 9 9 13 13 13 13 14 13 13 13 14 13 11 12 13 14 14 15 14 13 13 12 11 11 11 10 8 8
4 4 2 4 7 2 2 1 6 5 2 4 3 2 2 2 4 4 2 4 1 1 2 3 4 5 4 5 5 1 6 8 10 11 10 10 10 12 14 13 14 15 15 15 13 13 14 13 13 15 14 14 14 14 14 14 12 13 12 11 11 9 9
5 6 9 10 7 6 8 1 3 6 2 4 3 2 1 1 2 2 2 0 1 3 2 5 6 4 4 4 3 2 4 7 9 8 6 4 4 5 9 12 12 13 14 14 14 14 15 15 13 15 14 14 13 13 14 15 14 14 13 11 10 9 8
4 5 7 4 8 7 3 6 8 1 1 2 1 3 3 2 3 1 1 2 1 0 2 4 5 6 4 4 3 1 1 2 6 7 7 8 8 5 7 5 2 11 14 15 15 14 15 15 13 13 15 13 14 14 14 13 12 11 11 11 10 10 9
5 5 2 1 2 5 8 9 4 6 2 4 1 2 2 0 2 2 2 2 2 2 2 4 4 4 4 4 4 5 5 3 4 3 6 6 7 9 8 12 9 7 13 15 15 15 15 14 13 13 14 15 14 13 14 14 14 13 13 12 11 10 9
3 2 2 1 0 3 4 5 2 3 4 6 5 5 3 2 2 2 3 3 2 4 0 4 3 3 3 4 4 5 5 5 3 3 3 1 5 3 9 13 11 8 10 13 14 13 12 12 12 13 13 13 14 13 13 13 13 12 13 12 10 10 9
3 3 2 1 4 8 7 6 2 1 2 2 3 1 5 1 1 2 0 2 2 4 2 2 0 1 3 3 3 4 5 3 3 4 3 4 2 7 7 8 10 10 9 11 13 14 14 14 13 13 13 14 14 14 13 13 13 12 13 12 10 10 10
6 6 2 4 6 5 5 4 3 2 1 1 5 4 3 2 4 5 5 4 1 2 2 1 1 2 2 2 3 3 3 3 4 4 5 4 4 6 7 6 8 7 8 8 10 13 13 13 13 13 12 13 13 13 13 13 14 14 12 11 10 10 10
8 9 9 6 3 5 3 1 3 1 1 3 2 1 2 2 2 2 4 0 2 3 3 4 3 3 5 5 5 4 5 4 3 4 5 6 5 2 1 2 2 5 8 10 11 11 13 13 13 13 13 12 13 13 13 13 13 14 12 10 10 10 11
3 4 4 5 7 4 2 0 1 2 2 4 1 2 1 1 2 3 3 1 6 5 3 3 2 3 5 5 5 6 4 4 5 3 4 6 6 4 7 4 6 10 3 7 9 10 10 12 13 13 13 13 13 13 13 12 12 11 9 8 10 11 11
5 6 6 6 1 2 2 4 3 3 1 2 1 3 3 3 3 3 3 4 3 4 3 3 4 6 6 6 7 7 7 8 7 5 4 4 4 3 1 3 8 3 5 5 10 12 10 11 12 12 12 11 10 11 10 10 11 11 10 9 5 9 12
6 7 6 4 5 2 2 2 3 3 4 3 2 1 1 2 5 1 2 4 3 4 2 2 5 5 4 5 5 5 5 6 5 5 4 7 4 5 3 5 4 1 1 4 7 10 10 11 11 11 12 13 13 13 13 11 11 11 10 11 12 10 10
6 6 6 4 3 3 3 3 3 4 4 3 1 1 3 2 2 3 4 5 4 1 1 2 4 4 4 5 6 6 3 4 6 8 9 8 8 5 5 5 4 9 6 2 9 4 10 12 12 14 10 9 9 9 11 11 11 12 12 10 9 11 11
1 3 4 3 5 2 2 3 5 6 3 3 3 3 2 2 2 2 4 6 5 0 1 2 4 5 7 5 5 6 8 7 7 8 8 8 8 7 7 5 5 3 5 4 3 5 11 2 14 13 12 12 12 13 12 11 12 12 12 11 9 10 12
1 4 4 4 6 4 4 5 4 4 4 3 4 1 0 2 1 2 2 2 1 1 1 3 3 5 5 7 9 7 5 5 6 8 8 7 7 5 6 7 5 7 8 5 4 9 9 13 10 3 13 13 12 13 13 12 12 12 12 12 11 11 12
2 2 5 7 5 4 4 3 4 5 4 1 1 2 3 2 0 2 1 2 2 2 1 3 4 6 7 8 5 5 4 4 4 6 7 9 9 7 6 4 4 4 3 6 6 7 8 3 6 12 10 3 13 14 13 14 13 12 12 11 12 12 11
2 5 5 5 1 1 2 6 4 1 1 5 5 2 0 1 1 1 0 2 2 3 0 3 4 4 4 6 3 0 1 1 2 4 6 6 6 6 2 2 0 1 5 6 2 3 7 8 7 2 4 11 11 2 8 11 10 11 12 11 11 11 11
2 4 4 1 2 2 2 3 4 1 2 3 4 1 1 2 1 2 4 4 2 3 4 4 3 3 1 1 2 3 3 2 3 5 5 4 4 5 3 1 2 2 1 1 5 1 1 2 3 6 8 5 5 9 12 6 4 9 9 9 10 11 11
2 1 4 2 0 3 4 1 5 8 9 9 3 2 0 2 5 5 1 0 2 3 2 3 3 2 1 1 2 3 4 3 3 5 4 3 5 6 5 3 4 4 3 1 2 2 2 0 1 3 3 5 7 3 1 6 9 3 4 8 8 9 10
2 3 1 0 3 4 3 4 5 5 10 8 1 3 3 2 3 4 3 2 3 3 2 2 2 4 3 3 2 0 3 3 3 4 4 3 5 5 5 2 1 3 3 2 2 2 0 2 2 3 4 4 3 5 8 9 6 8 6 5 6 7 8
3 3 5 4 2 2 2 3 1 3 5 8 6 4 2 3 1 4 3 3 2 3 3 3 3 2 1 3 3 2 2 3 3 4 5 2 5 4 5 3 2 2 3 2 1 1 2 4 3 3 4 5 4 4 3 4 7 5 3 4 3 4 5
3 4 1 0 1 1 3 4 2 3 5 6 6 7 1 3 2 3 5 6 3 3 2 4 1 2 1 1 1 0 2 2 1 5 7 6 6 5 4 2 2 3 3 2 0 1 5 5 3 3 3 5 4 4 1 1 3 6 6 6 8 7 3
2 2 2 2 2 3 3 3 4 6 5 1 4 5 2 3 1 3 4 4 3 5 6 4 1 2 1 1 1 2 0 2 1 6 6 6 5 4 3 4 6 5 5 5 5 4 5 6 4 5 6 5 4 2 0 1 3 6 4 2 1 2 5
0 2 2 1 1 1 1 4 4 6 8 2 3 0 4 3 3 4 4 4 4 5 4 3 1 1 1 1 1 2 2 1 1 3 6 6 5 4 4 4 5 5 5 7 8 6 4 5 4 5 5 5 4 3 1 2 2 4 4 3 6 6 2
1 2 0 1 1 2 3 3 6 7 3 3 3 4 3 2 4 4 3 5 4 3 2 2 2 1 3 2 0 1 2 3 5 6 6 6 5 4 4 5 6 5 6 6 6 6 5 2 3 2 3 4 4 5 4 4 3 2 3 3 5 7 7
0 1 3 2 2 4 3 5 3 4 2 1 4 3 1 4 3 3 4 6 4 5 4 2 2 1 1 4 4 6 6 5 4 5 5 5 5 4 4 7 6 5 6 7 7 8 6 6 1 1 1 1 2 2 2 2 2 1 2 3 4 4 8
2 3 3 1 1 2 2 4 4 3 1 3 3 2 1 4 4 4 2 4 4 7 5 4 4 4 6 5 5 6 5 4 4 3 4 5 5 5 4 5 6 6 6 7 8 7 7 7 7 4 4 3 3 3 4 4 3 4 5 5 4 5 6
1 1 1 2 4 2 1 2 2 1 2 4 3 5 4 3 5 5 5 3 5 7 9 7 5 5 7 5 5 4 3 3 3 3 3 4 4 5 6 5 5 6 7 7 8 8 7 7 7 7 6 6 5 6 6 5 6 7 7 6 7 9 8
1 2 3 2 2 2 0 3 2 3 1 3 5 6 7 6 5 3 5 6 6 7 8 7 7 6 4 5 4 5 4 3 3 4 3 2 2 3 5 6 5 5 8 8 8 9 8 9 8 7 6 7 7 6 4 5 7 8 8 9 9 9 9
0 2 2 4 3 3 1 1 1 4 1 0 3 7 5 4 3 5 5 5 7 6 5 8 5 6 7 6 4 4 4 4 3 2 2 3 3 3 3 3 4 4 6 8 9 10 9 7 7 6 7 7 8 4 5 6 6 7 8 9 9 8 8
4 0 1 4 6 2 2 3 2 2 1 1 1 3 1 0 3 4 4 8 7 7 6 6 9 8 7 6 4 3 4 4 4 3 4 3 3 4 5 3 3 5 5 7 8 9 8 6 6 6 7 6 6 6 7 6 7 7 9 9 8 8 8
1 3 4 3 2 1 3 4 4 2 1 1 3 3 3 3 3 4 5 7 7 5 6 7 9 7 6 7 5 3 3 3 3 4 3 4 5 5 4 4 4 5 6 6 7 7 7 5 5 6 6 7 6 6 6 6 7 8 8 8 7 7 8
1 3 4 5 4 2 2 2 2 3 4 3 4 2 4 4 5 5 5 4 5 5 8 9 9 8 5 6 5 4 3 3 4 4 3 3 4 3 3 3 3 4 4 7 8 8 7 6 6 6 6 6 6 7 7 6 6 8 8 9 8 7 7
2 5 6 6 4 3 6 6 6 4 2 4 5 3 4 4 5 5 6 4 3 5 9 11 10 9 6 5 5 6 3 3 3 3 2 3 3 4 4 5 6 6 5 5 6 6 4 5 6 6 5 5 6 6 6 5 6 9 8 7 7 6 6
6 7 8 9 4 3 6 7 5 3 4 5 6 4 4 3 3 4 7 5 4 5 6 9 10 9 8 7 5 4 4 3 3 4 4 4 4 4 5 7 7 7 6 7 7 6 5 4 4 4 4 3 3 3 4 4 6 7 6 6 6 6 7
1 3 9 8 4 5 4 5 4 3 4 5 5 4 4 3 3 4 4 4 7 6 7 6 9 10 8 7 7 6 4 5 5 4 4 4 4 4 4 5 6 6 6 6 6 5 4 4 4 4 5 4 4 4 4 5 5 6 6 7 7 6 6
3 3 5 4 4 3 2 5 3 3 3 5 5 5 6 5 3 4 5 4 5 10 8 7 5 7 10 7 6 7 5 6 6 6 5 4 4 4 4 4 6 6 5 4 4 4 4 4 4 4 5 4 4 4 4 4 4 6 6 7 7 6 6
Wind_Direction
108 237 232 229 118 103 274 25 282 213 183 138 190 297 274 116 53 252 189 299 323 306 355 355 24 58 30 25 28 185 185 179 177 198 190 173 174 171 175 179 179 177 175 177 177 177 177 164 169 172 171 171 170 169 173 173 174 177 182 180 180 183 189
324 330 29 59 40 57 68 323 251 268 148 128 133 203 315 99 163 253 143 198 253 75 243 323 17 44 17 31 6 223 184 167 180 199 195 175 175 175 176 177 177 176 177 179 179 179 179 171 168 171 172 173 171 170 172 172 173 179 185 181 180 182 186
347 1 32 11 16 62 93 210 293 33 328 336 316 94 297 341 294 279 327 282 228 184 256 359 353 11 20 5 12 44 152 173 188 190 191 132 130 140 170 175 176 179 181 181 180 182 180 176 165 170 170 171 171 173 173 174 177 181 181 182 183 182 185
300 38 44 14 307 339 53 49 26 299 159 233 12 200 178 136 254 16 290 34 221 254 309 340 351 353 359 352 354 352 297 245 186 179 177 141 124 117 117 91 269 194 183 181 181 181 178 176 168 166 169 169 173 175 174 176 175 175 178 183 182 185 187
26 15 20 123 335 9 360 37 10 7 341 251 190 344 49 124 216 200 159 276 298 293 289 27 4 356 350 5 340 322 310 300 288 248 193 152 137 142 155 164 191 221 194 184 183 183 181 176 170 161 169 172 173 173 175 175 173 176 182 184 182 187 183
16 235 234 174 202 136 123 120 91 238 11 22 36 296 327 48 46 301 306 245 271 268 340 61 26 330 1 357 6 334 306 298 310 320 322 223 152 186 179 174 175 205 201 191 183 184 180 173 171 164 170 168 170 173 175 175 175 177 180 182 183 184 187
275 249 344 134 95 106 96 82 27 277 127 105 96 54 298 10 296 304 230 102 300 259 334 79 148 350 23 13 18 11 349 340 326 311 317 324 207 168 191 186 181 189 200 192 184 181 179 179 178 170 168 170 172 173 172 175 175 181 180 181 179 181 186
297 314 328 63 81 107 46 21 9 16 32 176 167 177 207 115 331 32 354 34 261 286 275 326 90 78 83 50 58 29 355 339 328 315 326 325 331 189 186 198 191 173 186 196 187 181 180 179 177 174 171 169 171 172 173 172 178 177 178 180 178 181 185
335 338 354 360 345 68 87 319 291 320 330 300 249 78 31 81 331 161 121 252 290 281 338 357 30 48 43 32 26 28 4 336 335 341 349 349 341 82 167 205 180 175 172 193 190 182 181 179 180 177 174 170 170 173 172 174 177 175 175 175 177 182 186
5 341 332 300 315 314 298 244 329 328 54 322 28 263 3 81 278 89 110 231 258 274 319 319 16 31 33 28 24 13 5 344 344 348 19 14 17 90 101 78 340 341 290 200 190 188 179 183 180 180 179 175 172 172 175 173 170 168 163 162 174 179 188
182 208 216 248 142 10 12 311 338 321 326 354 41 87 79 164 216 121 210 175 266 305 295 323 15 32 32 17 19 13 355 353 359 5 20 23 33 18 20 162 161 154 297 291 215 192 181 179 182 180 175 169 157 154 150 149 150 150 155 147 156 185 185
199 193 206 211 170 200 241 315 297 299 298 298 39 41 227 193 83 311 249 195 179 254 296 345 34 32 34 32 21 10 15 8 1 5 20 19 35 66 63 355 312 236 174 307 251 192 171 166 165 171 172 170 159 156 155 154 157 163 170 175 174 178 191
226 199 209 204 187 198 214 234 267 279 266 319 342 250 229 157 146 193 234 198 202 261 45 25 39 15 23 33 21 25 28 20 25 32 36 39 18 13 74 75 5 332 331 22 349 304 174 157 161 163 161 149 143 144 148 154 159 170 174 177 189 176 184
285 226 223 215 196 245 273 260 252 257 276 269 234 253 284 125 154 228 207 194 224 273 10 49 32 31 48 47 39 33 33 42 44 47 48 46 59 23 11 28 40 32 334 2 53 359 338 211 162 161 160 153 153 151 156 160 165 173 170 179 187 190 185
297 263 222 181 198 202 268 279 264 248 232 266 306 260 340 85 45 40 102 136 226 309 77 76 47 52 51 47 36 27 9 1 41 56 54 56 57 73 36 27 32 19 360 351 40 51 24 357 328 198 161 155 157 155 159 166 169 174 175 179 185 196 196
302 274 200 220 217 214 239 288 321 304 282 113 29 20 285 101 295 312 115 209 255 283 337 102 56 56 56 62 51 39 3 348 4 63 69 55 50 48 62 59 37 39 16 12 14 91 97 20 2 349 336 189 161 164 167 171 173 171 175 180 188 195 198
258 256 203 216 184 53 334 278 241 272 98 146 160 209 360 147 117 82 169 237 222 241 308 89 45 66 71 68 54 352 14 331 21 52 63 72 82 79 59 16 333 186 155 152 208 163 143 157 147 121 24 349 339 311 180 170 162 170 177 184 189 194 190
237 264 207 60 53 38 252 224 180 140 161 181 115 255 180 301 105 195 182 199 218 40 54 98 119 104 133 151 179 212 189 163 98 83 78 71 90 98 76 41 306 296 319 211 157 193 360 172 157 138 124 91 20 4 350 343 191 176 174 177 185 188 184
254 287 64 43 308 235 240 47 80 75 46 24 87 110 63 64 92 102 92 344 80 116 138 161 163 176 204 272 181 211 249 214 133 112 116 147 122 93 85 27 342 322 323 342 16 77 126 200 48 69 79 125 130 123 33 333 325 311 178 174 182 180 182
53 51 57 107 246 237 298 69 87 106 111 146 222 31 345 355 144 164 181 224 181 143 161 205 190 119 119 93 68 34 270 250 149 136 139 168 116 106 106 92 318 325 314 327 347 8 73 117 67 76 101 106 126 156 163 174 220 267 270 211 186 181 187
190 193 155 201 280 340 14 65 237 158 157 194 180 188 240 315 188 163 186 198 190 122 199 203 210 178 68 66 37 330 304 258 164 132 111 94 89 104 88 90 45 24 22 350 306 59 89 102 98 83 107 138 171 207 199 205 208 218 242 263 243 209 197
130 129 58 346 27 196 269 238 268 285 242 194 168 101 304 301 308 184 160 185 185 158 225 214 158 27 24 26 58 349 344 296 150 101 92 69 50 48 86 105 56 47 24 18 67 104 127 124 126 118 115 133 160 187 224 53 51 34 17 5 354 349 2
70 71 152 201 167 244 205 288 314 293 312 98 126 69 296 254 204 193 173 172 177 173 192 192 65 41 60 266 239 300 359 308 320 90 78 75 65 44 57 68 68 43 18 25 31 56 108 116 128 121 122 129 129 101 56 63 78 71 49 38 90 1 348
49 129 127 240 207 221 315 291 296 294 301 320 71 319 270 234 173 195 167 158 175 192 205 157 118 119 262 249 257 299 10 332 324 61 79 68 51 37 21 56 66 55 45 38 36 38 47 108 128 121 123 120 135 145 104 87 111 150 171 177 163 140 158
280 172 129 9 305 272 251 264 289 310 316 75 104 194 238 197 174 193 149 143 183 140 115 108 210 237 205 161 124 40 64 57 37 37 50 55 54 41 32 47 50 47 49 50 52 44 19 66 130 136 138 137 146 149 146 129 128 162 189 196 155 156 140
116 180 118 207 245 236 237 279 271 309 28 288 219 236 180 141 180 196 152 150 158 127 135 120 122 218 108 62 78 83 63 51 29 27 26 35 38 33 40 45 49 47 44 48 53 44 29 37 57 150 112 115 123 101 75 66 63 64 120 129 126 150 131
43 43 84 34 41 281 234 290 348 21 116 232 207 137 120 164 165 158 139 128 139 128 110 124 141 102 82 85 77 71 68 59 39 17 34 39 27 22 22 41 47 53 49 47 49 49 32 42 49 52 56 45 45 52 53 41 53 91 76 66 83 71 80
145 95 127 192 211 221 268 130 181 248 201 189 167 125 154 181 161 172 143 138 142 136 133 138 110 100 100 85 94 82 70 64 51 40 37 30 24 34 41 48 49 60 65 57 54 46 35 41 49 50 60 51 38 44 39 43 61 66 63 60 70 70 56
130 195 212 233 214 174 308 137 168 183 233 186 178 157 172 168 201 162 136 141 135 134 133 124 118 107 103 114 123 122 127 123 99 85 66 46 40 43 61 56 50 58 69 70 67 57 42 43 46 47 52 69 55 36 32 64 66 70 71 69 69 69 68
86 68 125 131 92 115 75 4 153 152 158 323 157 160 165 213 160 155 143 131 131 133 133 122 114 126 131 123 121 118 121 124 127 100 54 37 40 67 73 57 41 47 60 69 68 65 53 42 49 51 52 58 64 45 43 57 73 82 81 77 72 73 73
65 245 243 129 155 173 158 104 18 28 98 195 177 139 109 92 138 120 116 140 143 144 139 131 135 138 135 126 125 121 123 118 107 98 94 75 72 81 77 67 68 62 62 73 71 67 62 42 48 52 56 54 60 60 60 62 70 76 78 77 73 70 73
118 219 185 172 172 154 179 162 146 171 206 223 47 51 86 93 102 121 131 128 130 127 120 135 131 134 134 130 133 129 133 120 109 108 108 100 84 64 70 72 77 80 75 78 79 77 70 57 55 57 59 56 54 60 63 67 72 77 77 78 76 75 78
29 44 57 87 62 15 317 286 255 222 179 133 66 54 81 96 99 97 91 108 137 126 138 137 133 131 138 136 139 136 135 119 119 124 122 101 87 88 83 80 85 89 90 84 81 76 69 66 68 65 62 61 62 65 67 70 82 86 86 85 90 90 91
169 177 196 148 120 245 255 249 226 209 170 115 116 101 103 117 116 117 114 113 124 133 150 142 139 139 143 138 139 143 148 140 112 93 98 101 90 66 53 67 78 83 80 85 85 79 72 72 73 72 68 68 68 69 67 65 79 88 88 87 87 86 88
209 227 198 182 151 195 216 201 214 165 154 143 139 143 150 159 132 140 130 128 114 121 145 142 139 140 141 149 140 137 132 113 107 123 114 99 90 87 80 77 71 80 87 88 86 82 74 66 68 74 81 78 75 71 76 73 76 82 93 95 84 77 76
270 204 177 168 148 179 205 205 212 193 162 146 143 150 144 147 140 127 130 148 137 129 133 142 143 140 140 147 144 143 129 115 117 121 119 114 110 100 86 92 92 89 88 90 97 98 83 73 64 57 59 56 70 69 74 80 83 85 85 89 87 83 81
191 187 154 174 166 164 153 162 182 215 177 148 149 163 151 150 158 131 133 133 140 133 130 132 131 138 139 143 142 144 142 144 145 136 131 116 96 85 79 77 82 87 85 88 83 81 76 67 59 60 68 62 63 69 74 77 81 86 90 95 101 103 106